Location: ????????
(56.1167°N, 38.6333°E)
Time: 21:23:38
(UTC+00:00)

Cosmos 407 Rocket - Pass Details

Date: 18 November 2025
Orbit: 740 x 780 km, 74.0° (Epoch: 06 December)

Event Time Altitude Azimuth Distance (km) Brightness Sun altitude
Rises 14:45:18 0° 187° (S) 3,204 7.0 -12.5°
Reaches altitude 10° 14:47:43 10° 182° (S) 2,277 6.2 -12.9°
Maximum altitude 14:52:39 48° 109° (ESE) 973 3.7 -13.5°
Enters shadow 14:56:51 14° 39° (NE) 2,000 5.2 -14.1°
